Theta_e
297 297 296 296 296 296 295 295 295 295 295 295 295 295 295 295 296 296 296 296 296 296 296 296 296 295 300 303 305 305 305 304 302 305 312 314 313 313 316 318 319 321 321 320 320 320 320
297 296 296 296 296 296 295 295 295 295 295 295 295 295 295 295 295 295 295 296 296 296 296 296 296 297 303 305 305 304 304 304 304 303 310 311 314 314 315 317 320 320 320 321 320 320 319
296 296 296 297 296 295 295 295 295 295 295 294 295 295 295 295 295 295 295 295 295 295 296 296 298 300 304 304 304 303 304 304 303 305 306 311 313 314 315 318 318 318 320 321 320 320 320
297 296 297 296 295 295 295 295 295 295 294 294 294 294 294 294 294 294 294 295 296 296 296 296 300 306 305 304 303 303 303 304 304 304 304 307 311 314 314 315 317 318 319 320 320 319 319
296 295 296 295 295 295 294 294 294 294 294 294 294 294 294 294 294 295 294 295 297 297 297 302 306 306 306 306 306 306 305 306 307 307 304 305 306 311 315 317 317 318 319 319 319 320 320
296 295 295 295 295 294 294 294 294 293 293 293 294 294 294 295 295 295 295 299 300 301 306 306 306 306 306 305 306 307 308 309 311 309 306 305 307 310 312 317 319 320 319 320 321 322 322
296 295 295 294 294 294 294 293 293 293 293 293 293 294 294 294 295 295 298 301 302 304 303 302 302 306 303 302 302 302 302 308 310 310 310 306 308 309 311 315 318 319 320 321 320 321 322
296 296 296 295 294 293 293 292 293 293 293 293 293 293 293 293 294 297 300 301 299 298 300 300 300 300 301 301 303 304 303 306 310 312 310 307 307 309 311 313 316 317 318 318 317 318 319
296 295 294 294 293 292 292 293 293 292 293 293 293 292 294 293 298 300 300 300 299 300 301 300 302 303 304 306 307 307 304 305 309 312 311 307 308 308 309 311 314 315 315 315 315 316 317
296 295 293 292 292 292 293 292 292 293 294 294 294 293 294 294 299 298 300 298 299 300 303 303 306 307 308 308 308 308 307 304 307 310 312 309 309 310 309 310 312 314 314 313 313 315 316
297 295 292 292 293 294 292 292 293 294 295 295 294 293 294 297 298 299 298 298 300 301 303 304 306 308 307 307 307 308 307 304 306 310 311 311 309 310 310 310 311 312 312 312 313 315 315
297 293 293 293 293 293 292 292 293 295 295 295 295 293 293 298 299 299 299 299 301 305 303 302 304 305 305 305 306 307 307 307 305 309 312 312 311 312 311 310 311 311 313 313 313 314 317
295 295 297 294 293 293 292 292 294 295 295 296 295 293 294 298 299 300 300 300 303 304 302 301 302 303 303 306 308 309 311 309 307 309 314 313 315 312 312 312 312 312 315 318 319 320 318
293 296 295 294 293 292 292 292 294 295 296 297 295 294 298 299 299 300 301 303 300 299 299 301 301 301 305 306 306 307 309 308 308 309 313 314 317 314 314 313 312 315 315 316 317 318 317
296 295 294 296 294 292 293 293 294 295 297 297 297 299 300 299 299 300 302 302 300 299 300 300 301 303 306 304 305 307 312 309 308 310 315 314 316 314 314 314 314 316 316 315 319 321 322
297 296 293 295 293 291 293 294 295 295 297 296 299 299 300 296 299 301 303 301 301 300 300 301 301 302 303 303 306 308 311 309 308 311 312 314 315 314 314 315 315 316 316 318 319 319 318
296 295 293 294 292 291 293 295 295 296 297 297 300 300 300 297 300 302 303 301 301 300 300 300 301 302 303 305 307 308 310 308 309 311 311 312 314 314 315 315 315 317 318 319 319 321 324
295 294 294 294 291 292 294 296 295 297 297 298 300 302 299 300 304 302 302 302 301 302 302 303 303 304 305 307 307 308 312 308 310 310 310 312 313 316 317 314 315 315 316 317 319 320 319
295 294 293 293 293 292 294 295 295 297 297 299 300 299 299 302 303 303 302 302 302 303 303 304 305 305 306 306 307 306 313 312 310 311 312 312 314 316 319 316 316 316 316 317 319 319 321
294 292 294 293 294 293 293 295 296 297 296 298 299 302 300 300 300 302 302 302 303 303 304 303 305 305 307 308 305 308 313 311 311 311 310 312 314 315 316 315 316 317 317 316 317 319 318
294 293 293 294 294 292 293 295 296 297 296 298 300 300 298 302 302 301 302 302 302 302 302 303 307 306 307 307 306 308 308 311 310 310 311 313 314 315 315 315 316 315 316 315 316 314 314
294 293 293 294 293 292 293 294 296 297 296 299 296 301 299 299 299 301 301 302 301 301 303 303 305 305 305 305 306 307 308 309 310 310 310 311 309 310 311 312 313 313 311 309 308 310 314
294 292 294 294 293 291 292 294 296 297 297 299 298 298 299 298 300 301 301 300 300 301 302 302 304 305 305 305 305 306 307 307 308 308 309 309 309 310 309 308 308 308 309 310 311 314 316
293 293 293 293 292 291 292 294 296 297 297 298 299 299 300 302 300 300 299 299 300 300 301 302 303 304 303 305 306 306 307 308 308 308 309 308 308 308 308 308 308 310 311 310 314 312 311
293 293 293 292 292 292 292 294 296 297 296 298 298 298 299 301 300 299 299 300 301 301 302 302 302 302 304 307 307 306 308 307 307 308 308 309 309 309 308 309 309 312 310 310 311 311 309
293 293 293 293 293 292 292 294 296 296 297 297 298 297 299 300 301 298 300 299 301 302 303 302 302 303 305 308 308 306 307 307 307 308 308 308 309 309 309 308 312 311 310 309 310 312 306
292 293 292 293 293 291 292 293 295 296 296 297 297 297 298 300 300 299 301 300 299 301 302 303 302 304 304 308 309 307 307 306 307 307 308 309 310 311 309 310 311 304 305 307 314 307 302
291 292 292 293 292 292 292 293 295 295 295 296 297 296 297 299 299 299 300 300 300 301 302 301 304 304 304 306 306 306 308 307 309 308 309 310 311 311 311 310 313 299 306 308 302 298 299
291 291 292 293 292 292 292 292 293 295 294 296 297 296 297 298 299 299 299 299 299 299 300 300 301 303 302 305 304 305 307 308 307 311 308 310 307 308 305 304 299 298 297 296 299 298 297
Wind_Speed
15 13 11 9 7 4 2 3 4 5 6 7 9 11 13 15 17 19 21 22 25 26 27 26 26 27 19 13 28 21 27 25 22 14 15 15 23 27 29 28 31 31 27 32 30 29 26
16 14 12 10 8 6 4 4 5 5 7 9 11 12 14 17 20 23 25 26 28 28 27 25 21 20 14 24 16 15 18 10 10 18 21 20 20 24 25 31 27 31 33 29 30 26 25
17 15 14 11 9 6 4 4 5 7 8 10 12 15 18 20 23 26 28 29 29 28 26 24 20 14 19 35 15 15 17 18 16 15 20 22 20 20 24 23 28 34 23 21 22 32 24
18 17 15 12 9 6 5 5 6 8 10 11 14 16 19 22 24 26 28 29 28 25 23 18 15 10 15 15 16 23 24 27 26 26 25 20 17 23 26 17 24 17 25 24 24 21 21
19 18 15 12 9 7 6 6 6 7 8 11 14 17 19 22 24 25 26 27 25 19 13 11 4 6 17 8 11 11 14 19 21 21 25 22 21 23 18 20 18 25 21 27 26 25 23
19 18 16 12 10 7 6 5 5 6 9 10 13 17 19 20 21 22 25 24 15 11 9 7 10 7 18 11 6 7 13 14 17 16 20 26 16 18 20 18 23 23 24 22 23 19 21
20 17 15 13 10 6 5 4 4 6 8 11 13 16 18 18 19 19 24 23 13 6 7 14 22 25 32 29 29 31 24 17 14 18 20 28 19 23 35 28 24 22 20 21 16 20 19
20 18 15 13 8 5 2 1 2 5 7 10 13 15 17 17 18 14 17 13 11 9 19 28 34 34 32 26 23 26 19 23 20 21 21 19 26 31 24 24 23 22 19 18 16 17 8
18 17 15 11 7 4 3 1 2 4 7 9 12 14 17 17 10 14 12 9 12 14 10 27 18 16 12 9 21 25 23 27 23 22 23 27 23 24 25 21 21 19 19 19 17 12 14
18 15 13 11 8 5 3 1 1 4 5 8 11 13 15 18 7 13 6 14 12 11 6 8 8 4 4 7 11 12 18 29 25 27 23 25 23 18 22 23 20 19 20 21 18 14 14
16 14 11 12 8 6 4 2 1 3 5 8 10 13 14 15 9 10 12 14 12 4 7 6 5 2 9 9 13 17 2 25 27 26 20 19 21 19 23 23 18 17 18 19 16 16 15
19 12 13 10 8 6 5 3 0 2 5 6 9 12 15 10 8 9 14 14 5 6 8 5 11 17 19 21 25 19 23 18 29 26 21 17 14 15 15 19 14 21 11 11 13 12 14
17 15 12 11 9 7 6 4 2 2 4 6 8 11 10 6 8 14 13 10 6 7 12 13 23 24 25 20 21 23 20 18 21 20 16 15 18 16 13 12 16 17 16 8 9 10 11
20 15 13 11 9 7 5 4 3 2 4 5 8 8 6 6 12 10 7 9 9 12 20 23 20 27 25 16 16 16 13 16 25 25 12 15 7 15 16 17 13 19 17 7 11 13 13
15 14 15 11 9 8 5 5 3 2 4 5 8 4 3 10 7 6 11 5 11 14 17 18 25 18 16 15 14 13 19 19 23 25 8 14 5 13 15 11 16 17 15 18 6 9 4
16 14 15 12 10 9 7 5 4 2 3 5 3 1 3 9 8 7 5 8 11 14 19 18 17 10 15 28 16 16 12 17 26 19 12 5 6 12 15 11 7 14 14 6 6 4 6
17 14 16 11 10 10 8 6 4 2 2 6 2 4 3 9 5 4 4 10 13 16 15 8 14 20 17 22 8 12 7 16 20 19 12 10 9 12 14 13 14 6 10 5 5 3 4
17 15 16 10 10 10 9 6 4 3 3 5 2 1 5 4 3 2 5 11 10 13 17 10 10 14 12 17 9 6 5 11 7 13 13 11 4 12 19 14 9 14 11 10 5 5 1
16 13 15 10 11 11 10 6 6 3 2 1 2 1 2 4 3 5 9 8 12 17 14 7 8 6 11 7 4 7 3 13 3 3 4 6 5 10 6 9 6 10 7 4 3 2 5
17 16 13 13 11 11 11 8 7 3 1 4 1 0 1 1 0 9 9 8 15 10 6 16 10 7 16 6 8 10 8 15 16 9 13 2 5 8 6 12 14 8 10 7 3 3 1
17 14 17 14 12 10 13 10 8 5 4 5 1 2 1 0 2 7 8 9 13 12 10 18 5 20 16 8 13 15 14 8 13 22 8 5 6 8 5 11 12 11 10 6 4 2 3
16 13 18 15 13 12 15 12 10 7 7 2 3 3 4 2 4 6 1 7 11 13 5 13 18 21 17 18 18 19 15 11 6 11 10 12 5 8 12 10 10 10 6 2 2 3 6
18 17 18 15 13 11 16 13 11 9 8 3 2 1 4 2 2 4 3 7 12 12 6 15 17 16 14 22 30 21 13 8 7 4 5 7 4 4 4 5 7 7 9 6 5 19 12
22 21 18 15 11 10 16 15 13 11 10 1 3 2 2 3 4 4 6 8 10 11 10 15 17 15 19 30 21 2 3 2 6 5 6 4 2 2 4 4 4 7 10 7 16 18 15
18 17 19 14 14 12 15 16 13 12 12 6 3 1 4 4 3 2 7 7 9 7 9 9 16 18 22 18 5 2 4 4 8 10 7 7 4 2 1 4 13 8 9 9 8 10 16
19 19 17 16 15 12 16 17 15 13 14 10 5 4 3 5 3 4 7 3 6 8 6 8 17 12 18 5 4 5 4 8 5 5 6 3 3 1 2 4 3 7 16 17 8 4 15
18 20 18 18 15 13 17 17 16 13 12 11 11 7 2 3 5 5 8 7 8 8 7 9 20 10 16 7 5 5 4 5 4 5 6 5 5 6 2 2 7 11 23 25 4 4 11
15 18 23 19 13 16 15 16 18 15 11 10 9 7 4 4 9 10 8 7 7 8 6 14 9 9 7 7 5 4 4 6 4 7 6 7 6 5 3 2 4 24 9 6 5 9 11
15 19 23 18 15 16 15 19 20 16 15 10 12 11 10 7 8 10 11 14 14 11 9 5 2 6 6 3 5 3 3 3 5 1 10 3 5 4 6 3 4 10 11 10 9 8 11
Wind_Direction
214 213 213 213 208 214 253 279 296 314 320 324 326 329 329 325 322 320 319 321 322 322 320 319 318 314 318 272 253 271 283 279 260 260 245 233 226 229 233 233 238 235 241 247 257 253 257
209 210 209 205 206 212 230 275 299 313 318 324 321 320 320 317 319 318 319 320 319 320 316 314 311 302 285 270 278 260 266 263 277 242 241 239 240 231 241 239 241 242 240 250 247 252 245
206 203 203 203 208 219 239 275 300 309 313 316 320 323 322 320 319 317 317 316 315 314 307 307 304 295 262 254 259 257 259 257 262 256 248 241 242 246 239 250 243 255 256 246 245 241 241
200 199 200 202 210 226 248 276 300 311 320 325 323 323 319 319 319 318 316 315 317 311 301 295 294 260 255 266 275 262 261 263 261 253 243 237 246 253 244 252 246 240 241 248 234 236 234
200 201 203 204 213 228 253 271 298 309 318 323 322 318 321 325 325 322 317 323 326 310 299 293 269 246 275 288 260 278 248 260 254 252 237 232 236 237 233 234 239 230 237 231 243 237 227
200 201 206 206 213 226 248 271 308 325 327 322 325 329 332 336 332 329 326 339 335 321 320 272 252 254 243 265 242 257 262 273 248 242 224 217 221 226 230 218 222 218 222 241 250 211 222
204 200 201 207 208 214 237 296 337 335 331 335 342 339 339 338 335 334 345 344 5 269 295 273 273 259 271 280 275 267 267 255 239 238 217 205 209 214 219 220 231 251 249 237 227 242 231
201 197 194 198 198 199 217 316 350 328 340 345 342 341 340 340 337 357 1 6 12 317 301 280 265 263 268 275 274 266 250 229 242 233 214 212 220 223 227 221 226 240 250 257 270 266 226
196 195 193 196 186 188 191 198 330 338 356 347 345 340 344 350 12 2 347 354 338 324 276 296 260 255 252 251 264 274 244 237 238 226 228 222 221 224 229 220 221 222 233 247 260 260 251
196 192 190 183 178 184 187 211 7 9 2 352 346 342 340 354 346 337 1 332 325 322 280 271 180 172 203 273 269 293 247 229 237 242 230 226 224 212 218 217 215 221 225 247 259 256 251
194 190 177 172 176 183 193 164 69 7 352 353 344 344 349 1 339 339 322 319 320 301 293 53 111 105 256 238 289 307 220 218 239 216 240 217 221 221 211 211 206 229 233 239 240 252 257
195 178 173 180 178 186 182 177 162 336 346 350 344 344 348 357 334 319 316 309 292 247 267 337 356 342 317 301 309 287 251 226 227 250 241 223 204 201 203 192 216 226 218 223 240 243 243
184 169 181 187 188 183 184 200 217 316 340 351 346 352 6 3 321 324 323 297 263 253 331 345 334 330 319 313 314 303 251 198 212 220 227 182 212 189 194 174 194 202 199 184 203 210 238
172 175 189 188 192 189 191 212 227 298 334 343 351 3 340 342 321 321 309 273 290 329 332 340 327 312 296 21 312 319 250 196 213 224 201 183 198 174 182 195 181 195 192 210 214 210 218
177 197 184 191 195 196 193 208 224 267 329 343 8 1 7 323 344 341 297 322 2 335 326 320 317 310 324 327 325 299 242 195 206 224 160 194 214 165 215 190 192 208 215 237 264 232 270
189 203 191 197 198 192 189 213 222 251 340 351 3 307 302 340 334 311 306 319 342 337 325 318 307 301 311 308 316 331 225 184 204 219 108 215 129 186 185 189 204 218 192 185 228 236 226
196 208 185 203 198 187 189 202 211 240 330 355 28 252 349 342 10 312 324 354 332 330 337 329 293 293 291 302 294 305 215 166 199 195 200 269 141 185 181 201 185 174 173 222 242 302 284
199 211 185 194 188 195 195 198 189 209 13 32 284 289 338 7 237 225 344 335 330 324 320 310 302 287 278 296 291 291 326 161 151 189 214 215 231 171 198 204 256 190 196 207 234 182 253
202 211 185 201 196 199 199 198 189 211 322 295 292 319 341 20 338 358 14 342 346 345 332 324 300 317 295 302 277 245 60 11 174 181 247 183 208 176 178 180 172 179 170 124 85 304 197
207 191 193 195 206 210 197 202 196 181 126 101 92 177 156 114 120 317 3 353 359 17 19 347 297 308 330 345 353 350 43 27 48 29 352 245 197 219 255 172 172 168 139 171 191 208 195
198 197 194 203 216 207 198 197 197 187 152 119 68 234 132 232 126 339 338 352 358 11 357 346 330 355 352 346 333 6 11 11 42 13 23 23 110 75 65 114 143 154 142 156 153 289 296
195 201 193 205 228 220 196 192 196 192 156 179 136 259 177 224 268 286 43 353 352 351 347 330 355 346 339 3 351 336 349 32 27 349 20 340 73 84 91 94 114 114 102 189 231 261 277
201 202 206 207 222 210 195 192 191 188 146 200 210 278 283 156 234 276 43 323 319 329 324 347 345 338 346 347 326 314 314 325 327 9 118 5 0 125 105 95 124 116 47 33 101 45 27
201 203 212 206 221 194 194 189 194 182 165 189 194 266 276 266 274 355 332 321 318 325 313 328 353 345 328 329 321 193 330 335 43 96 334 162 189 312 120 195 157 73 38 39 74 55 33
202 206 208 213 204 207 201 190 197 192 187 175 211 249 303 286 305 243 330 331 309 315 323 338 349 334 331 327 326 237 174 201 74 48 45 16 323 89 163 87 115 93 42 17 337 59 20
207 205 202 213 210 221 195 193 198 199 194 193 201 186 305 285 80 349 312 323 340 344 329 349 348 342 346 301 308 344 35 322 13 115 75 67 316 333 168 144 150 36 5 354 296 94 9
210 210 205 211 204 206 197 197 199 200 203 208 230 221 235 287 313 335 8 339 337 340 313 344 345 350 2 341 332 353 37 310 8 23 15 25 21 21 92 45 90 353 316 312 265 37 14
209 215 207 208 206 206 204 202 199 198 201 204 234 213 214 266 291 292 284 292 323 319 333 347 330 9 354 11 358 5 337 359 316 46 13 14 331 32 346 337 95 354 8 43 339 41 38
201 211 205 205 204 213 209 207 204 198 207 208 235 235 227 246 272 290 273 268 271 275 295 309 323 342 7 335 23 299 304 330 350 44 35 43 24 5 25 56 53 37 61 41 49 59 41